Showing default

SKYSAT C9, 42989

Orbit data source: Space-Track

SKYSAT C9, 42989 is a payload satellite owned by Terra Bella (US) in SSO that was launched on Tue, 31 Oct 2017 UTC via a MINOTAUR-C 3210 launch vehicle from the Air Force Western Test Range (AFWTR). Payload-class satellites include a variety of spacecraft equipped with specific instruments for various scientific and technological missions. These include communications satellites like Starlink; space stations such as the ISS; scientific satellites like the Hubble; Earth observation satellites from companies like Planet Labs, Umbra, and HawkEye 360; GPS; miniature CubeSats for education and research; and military/defense satellites.

Loading next visibility...
Identifier
42989, 2017-068C
Orbit
SSO
Country
Flag of USUS
Related business
Manufacturer
Maxar SSL
Mission
Operational Commercial Imaging
Bus & Motor
SKYSAT-GEN2, Unknown motor
Mass
110 kg wet, 110 kg dry
Launch date (UTC)
2017-10-31 (9 years ago)
Launch vehicle
MINOTAUR-C 3210
Launch site
Air Force Western Test Range (AFWTR)
Object type
Payload
Rocket body
Debris
Shape & HBR
Box, 1.0 m
Radar Cross Section
0.888 m², Medium (>0.1 m² and < 1m²)

Expand to show TLE details & history
Last TLE update: 17 hours ago

TLE from 17 hours ago
0 SKYSAT C9
1 42989U 17068C   26263.13938775  .00010388  00000-0  23230-3 0  9999
2 42989  97.4550  42.9784 0008566 146.4310 213.7482 15.43649484497399
Epoch: 2026-09-20T03:20Z
TLE epoch observation values (Epoch: 2026-09-20T03:20:43.101Z)
Latitude
-0.00004°
Longitude
-6.23904°
Altitude
443.326 km
Speed
7.643 km/s
True Right ascension
02h 51m 54s
True Declination
0° 00' 00"
Sunlit
Object was in full shadow at epoch
Visualization orbit readout
Latitude
Unknown
Longitude
Unknown
Altitude
Unknown
Speed
Unknown
Apparent Right ascension
Unknown
Apparent Declination
Unknown
Sunlit
N/A
Visualization observer readout
Local Sidereal Time
13:01:31
Azimuth
Unknown
Elevation
Unknown
Doppler factor
Unknown
Orbital elements
Apogee altitude
438.119 km
Perigee altitude
426.452 km
Semi-major axis
6,810.423 km
Eccentricity
0.00086
Inclination
97.455°
RAAN
42.9784°
Arg. of periapsis
146.431°
True anomaly
213.69372°
Mean anomaly
213.7482°
Eccentric anomaly
213.72095°
Mean motion
3.86173 °/min
Orbital period
93.22 mins
BSTAR
0.0002323
Loading maneuver chart data...
Computing Atmospheric mass density...
Loading historical data...
Loading historical data...
Loading historical data...
Loading historical data...
Loading historical data...
Loading historical data...
Loading historical data...

Documentation

Showing up to 5 results
|